Catania, Italy

2:29 PM CET on February 22, 2017 (GMT +0100)
Fontanarossa

Weather History for LICC - October, 2013

Change the Weather History Date:

Wednesday, October 9, 2013

  Actual Average Record
Temperature  
Mean Temperature 70 °F -  
Max Temperature 80 °F 74 °F 86 °F (2004)
Min Temperature 60 °F 55 °F 51 °F (2011)
Cooling Degree Days 5    
Growing Degree Days 20 (Base 50)    
Moisture  
Dew Point 59 °F    
Average Humidity 71    
Maximum Humidity 88    
Minimum Humidity 34    
Precipitation  
Precipitation 0.00 in 0.12 in - ()
Sea Level Pressure  
Sea Level Pressure 30.08 in    
Wind  
Wind Speed 7 mph ()    
Max Wind Speed 13 mph    
Max Gust Speed -    
Visibility 6.2 miles    
Events      
Averages and records for this station are not official NWS values.
T = Trace of Precipitation, MM = Missing Value Source: Averaged Metar Reports

Daily Weather History Graph

Daily Weather History Graph

Search for Another Location

Airport or City:

Trip Planner

Search our weather history database for the weather conditions in past years. The results will help you decide how hot, cold, wet, or windy it might be!

Date:

Astronomy

Oct. 09, 2013 Rise Set
Actual Time 7:02 AM CEST 6:31 PM CEST
Civil Twilight 6:36 AM CEST 6:57 PM CEST
Nautical Twilight 6:05 AM CEST 7:27 PM CEST
Astronomical Twilight 5:35 AM CEST 7:57 PM CEST
Moon 11:35 AM CEST (10/9) 9:53 PM CEST (10/9)
Length of Visible Light 12h 21m
Length of Day
11h 28m
Waxing Crescent, 22% of the Moon is Illuminated
Oct 9
Waxing Crescent
Oct 12
First Quarter
Oct 19
Full
Oct 27
Last Quarter
Nov 3
New

Hourly Weather History & Observations

Time (CEST) Temp. Dew Point Humidity Pressure Visibility Wind Dir Wind Speed Gust Speed Precip Events Conditions
12:20 AM 62.6 °F 59.0 °F 88% 30.12 in 6.2 mi West 5.8 mph - N/A   Scattered Clouds
12:50 AM 64.4 °F 59.0 °F 83% 30.12 in 6.2 mi WSW 5.8 mph - N/A   Scattered Clouds
1:20 AM 64.4 °F 59.0 °F 83% 30.12 in 6.2 mi West 5.8 mph - N/A   Scattered Clouds
1:50 AM 64.4 °F 59.0 °F 83% 30.12 in 6.2 mi West 6.9 mph - N/A   Scattered Clouds
2:20 AM 60.8 °F 57.2 °F 88% 30.12 in 6.2 mi WSW 6.9 mph - N/A   Scattered Clouds
2:50 AM 60.8 °F 57.2 °F 88% 30.12 in 6.2 mi SW 6.9 mph - N/A   Scattered Clouds
3:50 AM 60.8 °F 57.2 °F 88% 30.12 in 6.2 mi SW 6.9 mph - N/A   Scattered Clouds
4:20 AM 60.8 °F 57.2 °F 88% 30.12 in 6.2 mi WSW 8.1 mph - N/A   Scattered Clouds
5:20 AM 60.8 °F 57.2 °F 88% 30.12 in 6.2 mi WSW 8.1 mph - N/A   Scattered Clouds
5:50 AM 60.8 °F 57.2 °F 88% 30.12 in 6.2 mi SW 8.1 mph - N/A   Scattered Clouds
6:20 AM 60.8 °F 57.2 °F 88% 30.12 in 6.2 mi WSW 9.2 mph - N/A   Scattered Clouds
6:50 AM 60.8 °F 57.2 °F 88% 30.09 in 6.2 mi WSW 9.2 mph - N/A   Scattered Clouds
7:20 AM 60.8 °F 57.2 °F 88% 30.09 in 6.2 mi WSW 8.1 mph - N/A   Scattered Clouds
7:50 AM 60.8 °F 57.2 °F 88% 30.09 in 6.2 mi WSW 6.9 mph - N/A   Partly Cloudy
8:50 AM 68.0 °F 59.0 °F 73% 30.12 in - WSW 8.1 mph - N/A   Clear
9:20 AM 69.8 °F 59.0 °F 68% 30.12 in - West 10.4 mph - N/A   Clear
9:50 AM 71.6 °F 59.0 °F 64% 30.09 in - WSW 9.2 mph - N/A   Clear
10:20 AM 73.4 °F 60.8 °F 65% 30.12 in - SW 9.2 mph - N/A   Clear
10:50 AM 75.2 °F 60.8 °F 61% 30.12 in - SSW 9.2 mph - N/A   Clear
11:20 AM 77.0 °F 59.0 °F 54% 30.12 in - SW 8.1 mph - N/A   Clear
11:50 AM 77.0 °F 57.2 °F 50% 30.09 in - WSW 6.9 mph - N/A   Clear
12:20 PM 78.8 °F 51.8 °F 39% 30.09 in 6.2 mi West 5.8 mph - N/A   Partly Cloudy
12:50 PM 80.6 °F 50.0 °F 34% 30.09 in 6.2 mi WNW 6.9 mph - N/A   Partly Cloudy
1:20 PM 80.6 °F 50.0 °F 34% 30.09 in 6.2 mi SW 9.2 mph - N/A   Partly Cloudy
1:50 PM 80.6 °F 51.8 °F 37% 30.06 in 6.2 mi SW 8.1 mph - N/A   Partly Cloudy
2:20 PM 77.0 °F 60.8 °F 57% 30.06 in 6.2 mi SE 11.5 mph - N/A   Scattered Clouds
2:50 PM 77.0 °F 60.8 °F 57% 30.04 in 6.2 mi SE 11.5 mph - N/A   Scattered Clouds
3:20 PM 75.2 °F 60.8 °F 61% 30.04 in 6.2 mi SE 12.7 mph - N/A   Scattered Clouds
3:50 PM 75.2 °F 60.8 °F 61% 30.04 in 6.2 mi SE 11.5 mph - N/A   Mostly Cloudy
4:20 PM 77.0 °F 62.6 °F 61% 30.04 in 6.2 mi SE 11.5 mph - N/A   Mostly Cloudy
4:50 PM 75.2 °F 64.4 °F 69% 30.04 in 6.2 mi SE 10.4 mph - N/A   Mostly Cloudy
5:20 PM 75.2 °F 62.6 °F 65% 30.04 in 6.2 mi ENE 11.5 mph - N/A   Scattered Clouds
5:50 PM 73.4 °F 62.6 °F 69% 30.04 in 6.2 mi ENE 11.5 mph - N/A   Scattered Clouds
6:20 PM 73.4 °F 62.6 °F 69% 30.04 in 6.2 mi NE 11.5 mph - N/A   Scattered Clouds
6:50 PM 73.4 °F 62.6 °F 69% 30.04 in 6.2 mi NNE 11.5 mph - N/A   Scattered Clouds
7:20 PM 73.4 °F 62.6 °F 69% 30.04 in 6.2 mi NNE 11.5 mph - N/A   Partly Cloudy
7:50 PM 71.6 °F 62.6 °F 73% 30.04 in 6.2 mi NNE 10.4 mph - N/A   Partly Cloudy
8:20 PM 71.6 °F 62.6 °F 73% 30.06 in 6.2 mi NNE 9.2 mph - N/A   Partly Cloudy
8:50 PM 71.6 °F 60.8 °F 69% 30.06 in - NNE 8.1 mph - N/A   Clear
9:20 PM 71.6 °F 60.8 °F 69% 30.06 in - NNE 6.9 mph - N/A   Clear
9:50 PM 69.8 °F 60.8 °F 73% 30.06 in - NNE 5.8 mph - N/A   Clear
10:20 PM 69.8 °F 60.8 °F 73% 30.06 in - North 3.5 mph - N/A   Clear
10:50 PM 68.0 °F 60.8 °F 78% 30.06 in - Variable 2.3 mph - N/A   Clear
11:20 PM 64.4 °F 60.8 °F 88% 30.06 in - West 5.8 mph - N/A   Clear
11:50 PM 64.4 °F 59.0 °F 83% 30.06 in - WSW 5.8 mph - N/A   Clear